Vertical_Velocity
-3 -1 -1 0 1 -1 -1 -2 0 -0 -2 -1 1 -5 1 -4 0 -0 -2 -2 -2 -1 20 9 -13 -2 3 -2 -1 2 1 -2 4 7 3 -5 4 -1 -2 -1 -1 -2 0 -1 3 2 -1
-2 -1 -1 0 -0 -0 -1 -1 1 -1 -2 -2 -1 -1 2 -4 3 1 -1 -5 -8 1 5 3 -1 0 -2 -6 1 -2 -0 1 -9 10 -2 -4 3 2 -2 0 -2 -0 -0 1 1 3 -2
-2 -1 1 -1 -1 -1 1 -0 1 -2 0 -3 -1 -0 -1 -4 -2 2 3 2 -2 -3 -8 -1 4 12 -6 4 2 2 3 6 10 -11 -6 -1 3 1 2 -0 4 -1 -4 -2 -3 -0 0
-2 -1 -2 1 -1 -0 -0 1 0 -1 -2 2 -2 -1 -2 -1 -3 1 -1 -5 -6 -0 4 7 -12 3 -1 6 2 -2 -2 8 1 12 -7 3 2 6 -1 6 -2 -4 -7 -3 -3 -1 1
-0 -1 -1 -1 -1 -1 0 0 -1 1 -2 -1 1 2 -2 -3 -3 -4 -5 -1 -4 -7 7 3 -2 -5 -3 6 -4 -5 1 -4 7 1 -5 -1 11 2 -0 -3 -4 -4 -1 -1 -1 0 -0
1 -1 -0 -1 -1 0 0 1 -2 -0 1 -2 -2 3 1 -3 -4 0 -9 -4 4 10 4 -1 14 -18 -3 -0 -7 8 -10 -13 19 4 -5 3 4 -3 -3 -4 -6 -2 -1 -0 -1 -2 -1
1 -1 -1 -1 -1 -1 1 1 -0 -2 -1 -0 -1 -1 1 1 1 -5 -1 -2 -6 -12 -12 2 2 2 3 -6 10 14 14 -14 -19 10 1 0 -10 -1 0 1 -0 -2 -2 -1 -0 -0 -1
-0 -0 -1 -1 -1 -2 -1 1 0 -1 -2 -2 -1 -2 1 -1 0 0 -1 -12 -1 0 -6 9 9 5 -8 15 -5 4 0 -0 7 -0 1 -8 -1 0 0 -0 -1 -1 -1 1 -0 -0 -3
0 -1 -1 -0 -0 -1 -2 -0 1 1 -0 -1 -1 -3 -3 2 -0 0 -2 -0 -2 -1 -3 -4 -1 -3 1 8 3 -3 3 1 -1 -4 0 -4 -1 -0 -3 -1 -2 0 -2 0 -5 0 -1
-0 -0 0 -1 0 0 -0 -1 -1 -0 1 -0 -0 -1 -2 -1 2 1 1 -1 -0 -3 -10 -14 -10 1 -2 0 -2 11 6 1 -3 -0 -1 0 -1 -1 -1 -1 -1 -2 0 -1 -1 -3 -4
-1 -0 1 -1 -0 -0 -1 1 0 -2 0 0 0 -1 -2 5 0 -0 0 1 -0 1 -12 -23 -12 0 1 -6 1 -6 0 -6 0 1 -11 0 -1 -2 -3 1 -1 1 -1 -0 -1 -1 -5
0 0 0 -0 -0 -1 -1 1 1 1 0 0 0 -0 -1 -3 -1 -0 -0 -1 1 -27 -13 -10 -2 -4 -6 -4 -2 -1 -2 -3 1 -4 -4 1 1 -2 1 1 -0 -0 -3 -3 -2 -2 -7
0 1 -0 0 -0 -1 -1 -1 -0 1 -0 1 1 0 -1 -1 -4 -3 -1 -0 -18 -12 -10 -8 -3 -1 -0 -1 -4 -3 -2 -5 -2 -9 -4 -4 -1 -1 -1 -3 -3 -4 -5 -5 -8 -9 -7
0 1 0 1 1 -1 -1 -0 0 -0 0 -2 0 1 2 0 -1 -0 -3 -13 -13 -5 -1 -3 0 -1 -1 -0 -1 -0 -1 -2 -3 -2 -2 -3 -13 -1 -3 0 -4 1 -5 -8 -5 -3 -4
-1 -0 0 0 1 0 -0 -1 1 0 -0 -0 -2 1 1 1 2 0 -3 -8 -9 -2 -0 0 -2 -2 -2 -1 -1 -4 -0 0 1 0 -3 -2 -1 -2 -1 0 -3 -2 -4 -3 -5 -1 -5
-2 -1 -0 -1 -0 1 0 -1 -1 -1 1 -1 1 -0 -1 0 2 2 -11 -2 0 -0 0 -1 -1 -1 -0 -1 -3 -3 -1 -0 -1 0 -0 0 -4 0 -1 -1 -2 -2 -4 -10 -5 -4 -2
-2 -2 -0 -1 -0 0 1 -1 -2 2 -0 -1 -2 1 2 0 -0 -1 -5 -2 -0 -0 0 -0 0 -0 0 0 0 0 -0 -2 -1 -2 -0 -1 -7 -6 -4 -1 -2 -2 -0 -3 -6 -4 -5
-2 -2 -2 -1 -0 -1 -0 1 -1 -2 2 0 -2 -6 -0 2 -8 1 -1 0 1 0 0 -0 -1 0 1 0 -0 -1 0 -1 1 0 -1 -0 -2 -1 -2 -1 -0 -1 -1 -2 -6 -3 -1
0 -1 -3 -3 -2 -0 -2 0 -1 -1 -2 -1 -1 -1 -1 -2 -5 -1 0 0 -1 -0 1 -1 -0 -0 -0 0 -1 0 -0 1 -1 -0 0 -2 -2 -3 -11 -9 -3 0 -0 -1 -1 -2 -2
0 -3 0 -2 -2 -1 -2 -1 -1 -1 -2 1 -1 -7 -2 -2 -0 -3 -1 -0 1 0 0 -0 -1 -1 -2 -1 -1 -1 -1 -1 1 0 1 -2 -0 -5 -8 -7 -3 0 0 0 -3 -2 -2
-0 0 -4 -3 1 -2 -2 -1 -1 -0 0 -2 -0 -1 -2 -4 -4 -0 -1 -1 0 0 0 1 1 -2 -3 -1 -0 -0 0 -2 -2 0 -1 -4 -1 -1 -1 -1 0 -0 -0 0 0 -4 -4
2 3 3 -0 -5 -4 -5 -5 -2 -2 -1 -1 -1 1 1 1 0 -1 -1 -1 -0 -1 -3 -2 0 -1 -0 -2 -8 -3 -2 -0 -1 -1 -0 -1 -1 -0 -1 -0 0 0 -1 0 -0 -1 1
1 1 -0 -1 3 0 -2 -3 -2 -2 -2 -0 0 -1 -1 1 0 -2 -1 -1 -1 -0 -2 2 0 -1 0 -1 -0 2 3 0 -6 -6 -0 -2 -1 -2 -2 0 -1 -1 -4 -2 -1 -0 -5
1 2 1 0 -1 0 -1 -3 -3 -3 -2 1 -0 -2 -0 -3 -1 -2 -0 -0 -0 0 1 0 -1 1 3 5 -1 -1 -1 1 2 -1 1 -1 -1 -1 -2 -4 -7 -15 -1 -1 -2 -1 -0
-1 1 2 1 1 0 -1 -2 -2 -3 0 0 -0 -2 -0 -1 0 0 1 -0 0 -1 -1 -1 1 -2 -1 -2 -3 -2 -3 -2 1 0 -1 1 -1 -1 -2 -1 -12 1 0 -2 -4 -3 0
-3 1 2 0 -1 0 3 -1 -1 -0 -3 -2 0 0 -1 -1 -5 -1 -1 -0 -2 -0 -2 1 1 -1 -3 -2 -1 -0 -2 -3 1 1 0 -1 -0 -4 -0 -0 -1 0 0 1 -0 -4 -1
-2 2 -1 1 2 -1 -1 -2 -1 0 1 -3 0 1 1 -1 1 0 -1 -3 -0 0 -1 -0 1 1 1 0 -0 -1 -2 -1 -2 -1 0 1 1 -3 -0 -1 -10 -3 -1 1 -0 -8 -2
1 -4 1 -1 4 1 2 -1 -3 -1 -0 2 -2 -5 1 0 -3 0 1 0 -1 1 -2 1 -4 -1 -1 -1 -1 -1 0 -2 0 -2 -3 -4 -4 -1 0 1 -9 -1 0 -1 -8 1 -1
2 -3 -2 4 1 0 3 3 1 -2 -0 -2 -3 3 2 -1 1 3 1 -1 -2 -0 -1 1 -0 -1 -2 -3 -0 -0 0 -0 -1 -2 -0 -5 -8 -8 -9 -13 -2 1 -2 -1 2 0 -3
Height
1540 1538 1535 1532 1530 1527 1525 1523 1520 1517 1514 1511 1507 1504 1501 1498 1493 1490 1486 1483 1480 1477 1475 1473 1474 1474 1474 1475 1475 1474 1475 1476 1479 1483 1486 1491 1493 1495 1497 1497 1498 1500 1503 1503 1503 1503 1506
1542 1540 1536 1533 1530 1528 1525 1523 1520 1517 1515 1512 1509 1505 1502 1499 1496 1492 1489 1486 1483 1481 1480 1479 1477 1476 1476 1477 1478 1478 1478 1479 1481 1484 1488 1493 1494 1494 1496 1497 1498 1501 1503 1505 1506 1505 1509
1544 1542 1538 1535 1531 1528 1526 1523 1520 1517 1514 1513 1510 1507 1504 1501 1498 1495 1492 1489 1486 1484 1483 1482 1480 1479 1477 1482 1480 1479 1480 1482 1485 1486 1490 1492 1494 1496 1497 1498 1501 1501 1505 1506 1509 1509 1513
1546 1543 1540 1537 1533 1529 1525 1522 1520 1517 1514 1512 1510 1508 1505 1502 1500 1497 1494 1492 1489 1488 1486 1484 1483 1482 1482 1484 1482 1482 1483 1484 1486 1490 1493 1495 1495 1497 1498 1499 1502 1505 1510 1519 1515 1512 1515
1547 1545 1541 1538 1534 1530 1526 1521 1518 1516 1513 1511 1509 1508 1505 1503 1501 1499 1496 1493 1491 1490 1489 1490 1487 1484 1489 1488 1486 1486 1488 1488 1489 1494 1496 1496 1497 1498 1500 1504 1514 1516 1528 1521 1518 1516 1516
1548 1545 1542 1539 1535 1531 1526 1521 1517 1514 1513 1511 1509 1507 1505 1504 1502 1500 1499 1495 1493 1489 1489 1491 1490 1491 1494 1494 1490 1491 1493 1493 1492 1493 1498 1499 1498 1502 1507 1511 1526 1518 1527 1523 1524 1522 1519
1549 1546 1542 1539 1536 1531 1526 1521 1516 1513 1512 1511 1509 1507 1506 1504 1503 1502 1499 1497 1496 1495 1491 1494 1495 1491 1494 1494 1494 1492 1492 1498 1499 1499 1500 1497 1504 1518 1509 1510 1508 1512 1518 1524 1525 1522 1521
1549 1547 1544 1540 1537 1532 1527 1521 1516 1513 1511 1511 1509 1507 1506 1506 1504 1503 1502 1500 1500 1503 1498 1496 1495 1496 1495 1494 1496 1496 1496 1496 1495 1495 1493 1501 1512 1510 1507 1509 1510 1514 1520 1525 1525 1523 1524
1550 1548 1545 1541 1538 1534 1528 1523 1517 1514 1512 1510 1508 1506 1506 1506 1505 1504 1503 1503 1502 1501 1501 1499 1498 1497 1497 1498 1498 1501 1500 1497 1494 1496 1499 1509 1513 1507 1508 1516 1515 1524 1521 1525 1525 1526 1528
1552 1549 1546 1543 1539 1535 1530 1525 1520 1516 1513 1511 1508 1505 1504 1505 1507 1504 1504 1503 1502 1502 1515 1511 1503 1502 1501 1496 1497 1499 1497 1498 1499 1504 1505 1514 1512 1511 1513 1519 1522 1525 1523 1522 1526 1531 1546
1552 1549 1546 1543 1540 1536 1532 1527 1522 1518 1515 1512 1508 1506 1504 1504 1505 1505 1506 1504 1503 1503 1544 1514 1508 1505 1503 1501 1503 1500 1497 1497 1504 1508 1507 1520 1518 1518 1519 1524 1521 1525 1523 1526 1530 1538 1543
1553 1550 1547 1544 1541 1537 1534 1529 1524 1519 1515 1513 1510 1506 1505 1505 1505 1506 1505 1505 1504 1522 1547 1521 1512 1510 1506 1504 1504 1503 1501 1501 1505 1508 1512 1519 1518 1521 1522 1522 1521 1523 1527 1533 1539 1545 1566
1552 1550 1548 1545 1542 1538 1535 1531 1526 1521 1516 1513 1511 1508 1505 1505 1505 1505 1505 1506 1522 1541 1528 1524 1519 1514 1512 1513 1511 1510 1512 1514 1517 1526 1533 1524 1525 1524 1523 1523 1524 1528 1539 1573 1559 1572 1561
1551 1550 1548 1545 1542 1539 1535 1532 1527 1522 1518 1514 1513 1510 1508 1506 1505 1505 1506 1510 1535 1534 1529 1521 1519 1516 1517 1516 1515 1516 1517 1526 1519 1519 1537 1543 1548 1529 1527 1528 1529 1535 1539 1566 1554 1563 1563
1551 1549 1547 1545 1542 1539 1535 1532 1528 1523 1518 1516 1514 1513 1510 1508 1506 1506 1507 1530 1536 1529 1524 1523 1520 1520 1520 1517 1517 1518 1523 1526 1524 1523 1524 1533 1533 1530 1529 1530 1533 1535 1547 1542 1561 1575 1574
1549 1548 1546 1544 1541 1539 1536 1532 1528 1524 1519 1516 1514 1512 1511 1509 1507 1506 1510 1528 1526 1526 1524 1523 1523 1522 1523 1521 1520 1521 1526 1526 1524 1522 1521 1526 1534 1533 1532 1531 1532 1531 1536 1550 1559 1554 1556
1548 1547 1545 1543 1541 1538 1536 1532 1528 1524 1520 1516 1514 1513 1512 1509 1508 1508 1526 1530 1525 1524 1525 1525 1525 1524 1523 1524 1524 1527 1530 1527 1526 1524 1523 1524 1530 1540 1535 1536 1537 1538 1540 1544 1549 1555 1559
1547 1546 1544 1542 1541 1538 1536 1532 1528 1525 1521 1517 1514 1516 1513 1510 1510 1517 1525 1523 1523 1524 1525 1525 1525 1525 1523 1524 1525 1527 1528 1528 1527 1525 1528 1528 1533 1548 1534 1534 1533 1534 1535 1541 1553 1548 1559
1544 1544 1543 1541 1540 1538 1535 1532 1529 1525 1521 1518 1516 1515 1514 1511 1524 1525 1522 1521 1522 1523 1524 1525 1526 1526 1525 1525 1526 1525 1526 1528 1527 1527 1528 1528 1535 1553 1540 1537 1534 1533 1534 1537 1543 1549 1550
1542 1541 1540 1539 1538 1537 1535 1532 1529 1526 1523 1521 1518 1520 1516 1515 1518 1520 1521 1522 1521 1520 1521 1521 1523 1524 1526 1527 1527 1528 1528 1526 1526 1526 1527 1527 1536 1535 1543 1532 1534 1534 1532 1534 1536 1557 1543
1540 1539 1538 1537 1536 1535 1534 1532 1530 1526 1523 1522 1520 1522 1522 1527 1523 1524 1523 1523 1522 1521 1520 1520 1521 1519 1522 1527 1528 1529 1530 1530 1529 1529 1529 1530 1534 1540 1535 1535 1533 1531 1530 1532 1535 1531 1532
1537 1535 1535 1535 1535 1534 1533 1531 1529 1527 1524 1523 1523 1524 1523 1523 1523 1524 1526 1525 1525 1523 1522 1522 1521 1520 1520 1520 1518 1524 1525 1529 1531 1533 1534 1535 1538 1539 1536 1533 1535 1534 1529 1530 1529 1526 1526
1536 1534 1532 1531 1532 1531 1531 1530 1529 1527 1526 1523 1523 1524 1524 1526 1525 1527 1527 1524 1524 1525 1524 1523 1523 1524 1523 1522 1522 1523 1521 1519 1518 1523 1531 1536 1540 1544 1536 1540 1534 1524 1517 1519 1518 1517 1513
1534 1533 1530 1529 1529 1530 1529 1529 1528 1527 1526 1526 1524 1524 1523 1525 1525 1525 1524 1525 1525 1527 1529 1527 1528 1528 1528 1525 1524 1523 1524 1526 1527 1528 1523 1527 1532 1540 1546 1540 1550 1510 1508 1508 1512 1510 1510
1530 1530 1529 1528 1527 1527 1527 1527 1527 1526 1526 1525 1524 1524 1524 1525 1523 1521 1521 1522 1522 1523 1524 1524 1526 1527 1527 1528 1531 1528 1528 1524 1528 1533 1533 1532 1535 1542 1542 1544 1518 1504 1504 1505 1506 1508 1508
1525 1525 1526 1526 1526 1526 1526 1525 1526 1525 1525 1525 1524 1523 1524 1524 1521 1521 1521 1521 1523 1524 1524 1521 1522 1523 1525 1528 1533 1530 1528 1523 1525 1528 1529 1532 1537 1543 1548 1544 1522 1506 1506 1506 1506 1511 1503
1520 1520 1521 1522 1522 1522 1523 1524 1524 1525 1524 1523 1524 1523 1523 1523 1519 1520 1520 1519 1520 1521 1523 1522 1522 1523 1523 1527 1530 1532 1530 1524 1525 1527 1531 1533 1536 1538 1542 1542 1525 1508 1505 1504 1510 1511 1505
1512 1514 1515 1516 1517 1518 1519 1519 1521 1522 1522 1522 1522 1522 1524 1521 1518 1517 1518 1518 1518 1518 1520 1521 1524 1522 1525 1529 1530 1528 1530 1524 1523 1522 1527 1528 1534 1536 1538 1539 1533 1503 1505 1506 1502 1499 1499
1505 1506 1508 1510 1511 1513 1514 1515 1516 1517 1519 1519 1520 1521 1521 1521 1517 1514 1513 1514 1516 1516 1517 1516 1518 1517 1519 1524 1527 1527 1525 1528 1527 1523 1520 1523 1517 1523 1522 1513 1500 1500 1499 1499 1498 1496 1497